Location: Unspecified
(0.0000°N, 0.0000°E)
Time: 07:43:09
(UTC+00:00)

Vanguard 2 - Visible Passes

Search period start: 09 February 2016 00:00
Search period end: 19 February 2016 00:00
Orbit: 553 x 2942 km, 32.9° (Epoch: 07 February)

Date Brightness Start Highest point End Pass type
(mag) Time Alt. Az. Time Alt. Az. Time Alt. Az.
09 Feb 9.2 19:47:52 10° NW 20:02:34 86° NE 20:07:35 34° ESE visible
09 Feb 10.7 22:03:59 10° W 22:09:07 21° WSW 22:09:07 21° WSW visible
10 Feb 9.4 20:06:50 10° WNW 20:21:07 71° SW 20:25:59 33° SE visible
10 Feb 11.0 22:25:05 10° WSW 22:27:31 14° WSW 22:27:31 14° WSW visible
11 Feb 10.0 18:11:52 10° NW 18:28:25 59° NNE 18:39:21 10° ESE visible
11 Feb 9.8 20:26:11 10° WNW 20:39:32 51° SW 20:44:21 29° SSE visible
12 Feb 10.1 05:21:23 10° S 05:24:11 15° SE 05:27:34 10° ESE visible
12 Feb 9.8 18:30:27 10° NW 18:47:19 77° NE 18:58:10 10° ESE visible
12 Feb 10.2 20:46:01 10° WNW 20:57:53 36° SW 21:02:41 23° S visible
13 Feb 9.7 05:38:27 10° SSW 05:42:28 26° SE 05:47:58 10° E visible
13 Feb 9.8 18:49:15 10° NW 19:06:02 84° SW 19:16:41 10° SE visible
13 Feb 10.6 21:06:27 10° W 21:16:18 26° SW 21:20:57 17° S visible
14 Feb 10.1 19:08:23 10° WNW 19:24:35 65° SW 19:34:58 10° SE visible
14 Feb 10.8 21:27:45 10° WSW 21:34:51 17° SW 21:39:09 13° S visible
15 Feb 10.5 19:27:54 10° WNW 19:43:05 49° SW 19:53:02 10° SSE visible
15 Feb 11.1 21:50:45 10° SW 21:53:39 11° SW 21:56:15 10° SSW visible
16 Feb 9.7 04:26:55 10° S 04:29:26 15° SE 04:32:20 10° ESE visible
16 Feb 10.8 19:47:56 10° W 20:01:34 36° SW 20:10:54 10° SSE visible
17 Feb 8.9 04:44:22 11° SSW 04:47:46 29° SE 04:52:18 10° E visible
17 Feb 11.0 20:08:35 10° W 20:20:11 26° SW 20:28:33 10° SSE visible
18 Feb 7.7 05:02:36 13° SW 05:06:05 58° SE 05:11:28 10° ENE visible
18 Feb 10.7 18:10:06 10° WNW 18:27:24 60° SW 18:39:50 10° SE visible
18 Feb 11.1 20:30:01 10° WSW 20:39:00 19° SW 20:45:56 10° S visible
